Location: Minneapolis
(44.9800°N, 93.2640°W)
Time: 12:04:36
(UTC-06:00)

Iridium 96 - Visible Passes

Search period start: 21 December 2014 00:00
Search period end: 31 December 2014 00:00
Orbit: 776 x 779 km, 86.4° (Epoch: 20 December)

Date Brightness Start Highest point End Pass type
(mag) Time Alt. Az. Time Alt. Az. Time Alt. Az.
21 Dec 7.9 18:03:47 10° SW 18:07:54 23° WNW 18:12:02 10° NNW visible
22 Dec 7.0 17:29:15 10° SSW 17:34:07 40° W 17:39:02 10° N visible
24 Dec 8.2 18:04:54 10° WSW 18:08:12 17° WNW 18:11:31 10° NNW visible
25 Dec 7.5 17:29:52 10° SW 17:34:21 29° WNW 17:38:51 10° NNW visible
27 Dec 8.4 18:06:41 10° W 18:08:33 12° WNW 18:10:26 10° NW visible
28 Dec 8.0 17:30:44 10° WSW 17:34:36 21° WNW 17:38:30 10° NNW visible
